Flag for Canada Weather past 2 weeks in Corner Brook, Newfoundland and Labrador, Canada

Now
61 °F

Sprinkles. Passing clouds.


Feels Like: 61 °F
Forecast: 61 / 73 °F
Wind: 2 mph from North

Location: Deer Lake

Current Time: Aug 5, 2015 at 4:47:55 AM

Latest Report: Aug 5, 2015 at 4:30 AM


Visibility: 15 mi

Pressure: 29.85 "Hg

Humidity: 100%

Dew point: 61 °F

Location of Corner BrookLocation

Historic Weather in Corner Brook — Graph

°F

Corner Brook temperature yesterday

Maximum temperature yesterday: 84 °F (at 3:30 PM)
Minimum temperature yesterday: 50 °F (at 5:30 AM)
Average temperature yesterday: 66 °F

Past Weeks' High & Low Weather Summary

 TemperatureHumidityPressure
High84 °F (Aug 4, 3:30 PM)100% (Jul 23, 2:30 AM)30.21 "Hg (Jul 23, 2:30 AM)
Low36 °F (Jul 26, 4:30 AM)32% (Jul 25, 5:30 PM)29.58 "Hg (Jul 23, 12:30 PM)
Average60 °F80%29.91 "Hg
* Reported Jul 21 3:30 AM — Aug 5 3:30 AM, Corner Brook, Weather by CustomWeather, © 2015

Note: Actual official high and low records may vary slightly from our data, if they occured in-between our weather recording intervals... More about our weather records

Advertising

Corner Brook weather history for previous 24 hours

 ConditionsComfort  
Time TempWeatherWind HumidityBarometerVisibility
3:30 AM
Wed, Aug 5
59 °FSprinkles. Passing clouds.7 mph100%29.87 "Hg15 mi
2:30 AM59 °FPassing clouds.6 mph94%29.87 "Hg15 mi
1:30 AM59 °FPartly cloudy.7 mph88%29.89 "Hg15 mi
12:30 AM59 °FPartly cloudy.5 mph94%29.93 "Hg15 mi
11:30 PM
Tue, Aug 4
61 °FPassing clouds.7 mph88%29.93 "Hg15 mi
10:30 PM63 °FPartly cloudy.7 mph83%29.94 "Hg15 mi
9:30 PM66 °FPassing clouds.9 mph83%29.95 "Hg15 mi
8:30 PM75 °FBroken clouds.8 mph61%29.94 "Hg15 mi
7:30 PM77 °FPartly sunny.9 mph57%29.93 "Hg15 mi
6:30 PM79 °FBroken clouds.9 mph54%29.93 "Hg15 mi
5:30 PM75 °FPartly sunny.7 mph69%29.94 "Hg15 mi
4:30 PM81 °FPartly sunny.9 mph54%29.93 "Hg15 mi
3:30 PM84 °FCloudy.15 mph43%29.93 "Hg15 mi
2:30 PM82 °FPartly sunny.13 mph48%29.94 "Hg15 mi
1:30 PM82 °FPartly sunny.10 mph48%29.95 "Hg15 mi
11:30 AM75 °FScattered clouds.5 mph61%29.98 "Hg15 mi
10:30 AM70 °FScattered clouds.6 mph73%30.00 "Hg15 mi
9:30 AM64 °FScattered clouds.7 mph78%30.01 "Hg15 mi
8:30 AM61 °FPartly sunny.7 mph88%30.02 "Hg15 mi
7:30 AM55 °FPartly sunny.3 mph94%30.02 "Hg15 mi
6:30 AM52 °FScattered clouds.3 mph100%30.01 "Hg15 mi
5:30 AM50 °FPassing clouds.3 mph100%30.01 "Hg15 mi
4:30 AM54 °FPassing clouds.3 mph94%30.00 "Hg15 mi
Weather by CustomWeather, © 2015

See weather overviewHow to use our weather pages